Location: Lake Crest
(37.6062°N, 88.9176°W)
Time: 08:10:54
(UTC+00:00)

Cosmos 1634 Rocket - Pass Details

Date: 15 December 2019
Orbit: 960 x 992 km, 82.9° (Epoch: 20 January)

Event Time Altitude Azimuth Distance (km) Brightness Sun altitude
Rises 10:14:23 0° 175° (S) 3,650 7.1 -32.5°
Reaches altitude 10° 10:16:54 10° 173° (S) 2,703 6.4 -32.0°
Maximum altitude 10:23:00 64° 93° (E) 1,062 4.3 -30.8°
Drops below altitude 10° 10:29:06 10° 13° (NNE) 2,703 6.4 -29.6°
Sets 10:31:37 0° 11° (N) 3,652 7.0 -29.1°
